Photometre #383[NE_1.6] Valladolid AOT

File : 20190923_383.hum

23/09/2019,06:55:00,TEMP=10.5,BA=5.64,STAT.A=23.5,ExtBa=13.41
23/09/2019,06:58:26,TEMP=11.1,BA=5.64,STAT.A=23.5,ExtBa=13.20
23/09/2019,07:02:28,TEMP=11.5,BA=5.64,STAT.A=23.5,ExtBa=13.15
23/09/2019,07:07:14,TEMP=11.9,BA=5.64,STAT.A=23.5,ExtBa=13.15
23/09/2019,07:13:00,TEMP=12.4,BA=5.64,STAT.A=23.5,ExtBa=13.17
23/09/2019,07:20:06,TEMP=13.2,BA=5.60,STAT.A=23.5,ExtBa=13.20
23/09/2019,07:29:04,TEMP=13.4,BA=5.60,STAT.B=24.0,ExtBa=13.24
23/09/2019,07:38:53,TEMP=13.5,BA=5.60,STAT.A=23.5,ExtBa=12.95
23/09/2019,07:40:45,TEMP=13.8,BA=5.60,STAT.A=23.5,ExtBa=12.94
23/09/2019,07:43:35,TEMP=13.8,BA=5.60,STAT.A=23.5,ExtBa=12.99
23/09/2019,07:49:44,TEMP=13.7,BA=5.60,STAT.A=24.0,ExtBa=13.12
23/09/2019,07:56:49,TEMP=14.2,BA=5.60,STAT.F,ExtBa=13.15
23/09/2019,08:10:45,TEMP=15.0,BA=5.60,STAT.A=23.5,ExtBa=12.87
23/09/2019,08:14:44,TEMP=14.9,BA=5.60,STAT.A=23.5,ExtBa=13.02
23/09/2019,08:26:20,TEMP=14.6,BA=5.60,STAT.A=24.0,ExtBa=13.19
23/09/2019,08:40:36,TEMP=14.9,BA=5.60,STAT.A=24.0,ExtBa=13.25
23/09/2019,08:58:40,TEMP=15.1,BA=5.60,STAT.B=24.0,ExtBa=13.29
23/09/2019,09:11:56,TEMP=15.5,BA=5.60,STAT.F,ExtBa=13.29
23/09/2019,09:26:56,STAT.X
23/09/2019,09:41:55,TEMP=16.8,BA=5.60,STAT.D=24.0,ExtBa=13.16
23/09/2019,09:56:53,TEMP=18.4,BA=5.60,STAT.D=24.0,ExtBa=13.25
23/09/2019,10:11:58,TEMP=19.2,BA=5.60,STAT.F,ExtBa=13.24
23/09/2019,10:26:54,TEMP=19.7,BA=5.60,STAT.D=24.0,ExtBa=12.92
23/09/2019,10:41:55,TEMP=20.4,BA=5.60,STAT.D=24.0,ExtBa=13.19
23/09/2019,10:56:55,TEMP=21.2,BA=5.60,STAT.D=24.5,ExtBa=13.23
23/09/2019,11:11:57,TEMP=21.9,BA=5.60,STAT.F,ExtBa=13.23
23/09/2019,11:26:55,TEMP=21.4,BA=5.60,STAT.D=24.0,ExtBa=12.89
23/09/2019,11:41:54,TEMP=21.2,BA=5.60,STAT.D=24.5,ExtBa=13.17
23/09/2019,11:56:55,TEMP=21.8,BA=5.60,STAT.D=24.5,ExtBa=13.21
23/09/2019,12:11:57,TEMP=22.2,BA=5.60,STAT.F,ExtBa=13.23
23/09/2019,12:26:55,TEMP=22.7,BA=5.60,STAT.D=24.0,ExtBa=12.88
23/09/2019,12:41:55,TEMP=22.8,BA=5.60,STAT.D=24.5,ExtBa=13.14
23/09/2019,12:56:55,TEMP=23.2,BA=5.60,STAT.D=24.5,ExtBa=13.19
23/09/2019,13:11:57,TEMP=23.4,BA=5.60,STAT.F,ExtBa=13.20
23/09/2019,13:26:55,TEMP=23.8,BA=5.56,STAT.D=24.0,ExtBa=12.87
23/09/2019,13:41:55,TEMP=24.2,BA=5.60,STAT.D=24.5,ExtBa=13.12
23/09/2019,13:56:55,TEMP=25.1,BA=5.60,STAT.D=24.5,ExtBa=13.16
23/09/2019,14:11:57,TEMP=25.0,BA=5.60,STAT.F,ExtBa=13.17
23/09/2019,14:26:55,TEMP=24.2,BA=5.60,STAT.D=24.5,ExtBa=13.18
23/09/2019,14:41:55,TEMP=24.0,BA=5.60,STAT.D=24.5,ExtBa=13.19
23/09/2019,14:56:56,STAT.X
23/09/2019,15:11:56,TEMP=24.5,BA=5.60,STAT.F,ExtBa=13.11
23/09/2019,15:26:10,TEMP=25.3,BA=5.56,STAT.B=24.0,ExtBa=12.83
23/09/2019,15:43:16,TEMP=25.0,BA=5.56,STAT.A=24.5,ExtBa=13.03
23/09/2019,15:57:32,TEMP=25.3,BA=5.60,STAT.A=24.5,ExtBa=13.09
23/09/2019,16:09:08,TEMP=25.6,BA=5.60,STAT.A=24.5,ExtBa=13.10
23/09/2019,16:18:49,TEMP=25.7,BA=5.56,STAT.A=24.5,ExtBa=13.10
23/09/2019,16:27:02,TEMP=25.8,BA=5.56,STAT.F,ExtBa=13.09
23/09/2019,16:41:16,TEMP=25.5,BA=5.56,STAT.A=24.0,ExtBa=12.82
23/09/2019,16:43:08,TEMP=25.6,BA=5.56,STAT.A=24.0,ExtBa=12.84
23/09/2019,16:45:40,TEMP=25.5,BA=5.56,STAT.A=24.0,ExtBa=12.87
23/09/2019,16:50:28,TEMP=25.0,BA=5.60,STAT.A=24.5,ExtBa=12.94
23/09/2019,16:54:46,TEMP=25.0,BA=5.60,STAT.B=24.5,ExtBa=12.94
23/09/2019,17:03:44,TEMP=24.7,BA=5.56,STAT.A=24.0,ExtBa=12.82
23/09/2019,17:10:50,TEMP=23.9,BA=5.60,STAT.A=24.5,ExtBa=12.97
23/09/2019,17:16:36,TEMP=23.5,BA=5.60,STAT.A=24.5,ExtBa=12.96
23/09/2019,17:21:22,TEMP=23.4,BA=5.60,STAT.A=24.5,ExtBa=12.96
23/09/2019,17:25:24,TEMP=23.4,BA=5.60,STAT.A=24.5,ExtBa=12.92
23/09/2019,17:28:50,TEMP=23.5,BA=5.60,STAT.A=24.0,ExtBa=12.90